Location: Newark
(48.9886°N, 1.2358°E)
Time: 05:37:23
(UTC+00:00)

Transit 4A - Pass Details

Date: 20 November 2019
Orbit: 870 x 975 km, 66.8° (Epoch: 07 December)

Event Time Altitude Azimuth Distance (km) Brightness Sun altitude
Exits shadow 05:27:41 11° 330° (NNW) 2,470 9.7 -16.7°
Maximum altitude 05:33:14 56° 48° (NE) 1,046 8.4 -15.9°
Drops below altitude 10° 05:38:57 10° 126° (SE) 2,519 11.3 -14.9°
Sets 05:41:27 0° 131° (SE) 3,449 12.0 -14.5°
